302  
SXUS52 KTAE 140618  
OSOTAE  
OSOTAE  
NORTH FLORIDA/SOUTH ALABAMA/SOUTHWEST GEORGIA WEATHER ROUNDUP  
NATIONAL WEATHER SERVICE TALLAHASSEE FLORIDA  
200 AM EDT TUE AUG 14 2018  
 
NOTE: "FAIR" INDICATES FEW OR NO CLOUDS BELOW 12,000 FEET WITH NO  
SIGNIFICANT WEATHER AND/OR OBSTRUCTIONS TO VISIBILITY.  
 
!FLZ017-115-028-034-025-140700   
..NORTH FLORIDA
 
 
 
CITY SKY/WX TMP DP RH WIND PRES REMARKS  
TALLAHASSEE FAIR 75 73 93 S6 30.02F  
APALACHICOLA FAIR 77 77 100 NE6 30.02S  
PERRY CLOUDY 77 73 88 SW8 30.05S  
CROSS CITY FAIR 77 N/A N/A CALM 30.04R  
JACKSONVILLE MOCLDY 77 76 96 S6 30.02F  

 
 
!FLZ112-006-005-002-011-140700   
..FLORIDA PANHANDLE
 
 
 
CITY SKY/WX TMP DP RH WIND PRES REMARKS  
MARIANNA FAIR 75 73 93 S6 30.01F  
BONIFAY NOT AVBL  
PANAMA CITY NW FAIR 75 72 90 CALM 30.01S  
TYNDALL AFB FAIR 75 74 97 CALM 30.02S  
TYND DRONE APT FAIR 73 72 96 CALM 30.02S  
DE FUNIAK SPR FAIR 74 72 91 CALM 30.02F  
EGLIN AFB PTCLDY 75 72 88 CALM 30.01S  
DESTIN FAIR 77 73 87 CALM 30.02R  
HURLBURT CLEAR 76 68 78 CALM 30.00F  
CRESTVIEW FAIR 73 72 96 CALM 30.03S FOG  
PENSACOLA FAIR 78 74 87 CALM 30.02S  

 
 
!ALZ063-066-140700   
..SOUTH ALABAMA
 
 
 
CITY SKY/WX TMP DP RH WIND PRES REMARKS  
DOTHAN FAIR 76 72 87 CALM 30.05S  
OZARK CAIRNS FAIR 73 71 94 CALM 30.02S  
FT RUCKER HELI FAIR 72 71 98 CALM 30.02R  
RUCKER HELI 3 FAIR 74 71 89 CALM 30.02S  
RUCKER HELI 2 NOT AVBL  
FLORALA APT FAIR 73 70 90 CALM 30.04  
ANDALUSIA FAIR 76 72 87 S3 30.03S  
TROY FAIR 72 70 93 E5 30.04R  
EUFALA FAIR 74 73 97 SW3 30.01S  
MOBILE FAIR 73 71 93 CALM 30.04F FOG  

 
 
!GAZ120>161-140700   
..SOUTHWEST AND SOUTH CENTRAL GEORGIA
 
 
 
CITY SKY/WX TMP DP RH WIND PRES REMARKS  
THOMASVILLE FAIR 72 72 100 CALM 30.03F  
BAINBRIDGE N/A 77 72 83 CALM 30.01F  
MOODY AFB FAIR 73 72 99 SE5 30.02F  
VALDOSTA FAIR 74 73 97 SE3 30.03F  
MOULTRIE FAIR 70 70 100 CALM 30.03F  
BLAKELY FAIR 72 70 94 CALM 30.02S FOG  
ALBANY FAIR 73 71 93 CALM 30.04F  
TIFTON FAIR N/A N/A N/A CALM 30.02F  
FITZGERALD FAIR 74 73 96 CALM 30.05F  
CORDELE FAIR 74 71 90 S3 30.04S  
AMERICUS FAIR 72 64 78 CALM 30.05R  
HOMERVILLE FAIR 72 72 100 CALM 30.04F  

 
 
!GMZ750-755-770-775-140700   
..COASTAL AND BUOY OBS
 
 
 
STATION/POSITION TIME TEMP WIND PRES VSBY WAVE  
AIR SEA DIR/SP/G HT/PER  
(UTC) (F) (DEG/KT/KT) (MB) (MI) (FT/S)  
KEATON BEACH 0600 79 330/ 6/ 9 1017.3R  
CEDAR KEY 0600 82 230/ 7/ 11 1017.4F  
C TOWER 0600 83 200/ 7/ 8 1016.8F  
APALACHICOLA BUO NOT AVBL  
PANAMA CITY BUOY 0450 84 86 210/ 6/ 8 1016.4 1/ 6  
MOBILE BUOY 0600 86 CALM 1017.1  
ORANGE BCH AL BU 0600 83 70/ 4/ 6 1016.7  

 
 
 
CLICK HERE TO GO TO PREVIOUS BULLETINS.

The Nexlab FL Page
The Nexlab GA Page
The Nexlab AL Page Main Text Page